[[{"header":{"parameterUnit":"m.s-1","parameterCategory":1,"la1":30.2991,"la2":30.254,"lo1":-89.0895,"lo2":-89.0444,"dy":0.0017,"dx":0.0017,"nx":28,"ny":28,"refTime":"2025-07-10T21:00:00:Z","depth":0,"parameterNumber":2,"parameterNumberName":"U-component_of_WINDS"},"data":[0,0,0,0,0,0,0,0,0,0,0,0,0,0,0,0,0,0,0,0,0,0,0,0,0,0,0,0,0,0,0,0,0,0,0,0,0,0,0,0,0,0,0,0,0,0,0,0,0,0,0,0,0,0,0,0,0,0,3.2862,3.2863,0,3.2973,3.2974,3.2975,3.2936,3.2934,3.2931,3.2929,3.3043,3.3048,3.3054,0,0,0,0,0,0,0,0,0,0,0,0,0,3.2619,3.2623,3.2862,3.2864,3.2865,3.2972,3.2974,3.2975,3.2937,3.2934,3.2931,3.2928,3.3041,3.3048,3.3054,0,0,0,0,0,0,0,0,0,0,0,0,0,3.2726,3.2625,3.2862,3.2858,3.2859,3.2972,3.2974,3.2976,3.2937,3.2934,3.293,3.2926,3.3039,3.3047,3.3055,3.3178,0,0,3.3079,3.3083,0,0,0,0,0,0,0,0,3.272,3.2735,3.2858,3.2859,3.286,3.2937,3.293,3.3044,3.2938,3.2908,3.2929,3.2925,3.3011,3.3021,3.305,3.3183,3.3188,3.308,3.3085,3.3088,3.3091,0,0,0,0,0,0,0,3.2713,3.273,3.2906,3.2859,3.2861,3.2852,3.2863,3.2951,3.2979,3.291,3.2907,3.2921,3.3011,3.3042,3.3052,3.319,3.308,3.3087,3.3092,3.3095,3.3429,3.3433,0,0,0,0,0,0,3.2705,3.2724,3.2902,3.2909,3.278,3.2859,3.2872,3.2916,3.2978,3.2983,3.2924,3.2919,3.303,3.3043,3.3056,3.3203,3.3088,3.3096,3.31,3.3425,3.343,3.3435,0,0,0,0,0,0,3.2699,3.2721,3.2898,3.2816,3.2838,3.2867,3.2917,3.292,3.2951,3.2988,3.2993,3.2951,3.3028,3.3045,3.3148,3.3207,3.31,3.3107,3.342,3.3427,3.3432,3.3499,0,0,0,0,0,0,3.2693,3.2719,3.2766,3.2817,3.2842,3.2988,3.2921,3.2925,3.2965,3.2959,3.3015,3.302,3.3026,3.3136,3.3156,3.3216,3.3113,3.3415,3.3423,3.343,3.3492,3.3507,3.352,0,0,0,0,0,3.2684,3.2781,3.2769,3.279,3.2902,3.2991,3.3005,3.301,3.297,3.3017,3.3041,3.3019,3.3197,3.3147,3.3169,3.3232,3.3412,3.3421,3.343,3.3486,3.3504,3.352,0,0,0,0,0,0,3.2737,3.2788,3.2775,3.2891,3.2937,3.2984,3.3044,3.3029,3.3088,3.308,3.3084,3.3097,3.3202,3.3228,3.3171,3.3354,3.3298,3.3312,3.3334,3.3351,3.3365,3.3356,3.312,0,0,0,0,0,3.2762,3.283,3.2871,3.297,3.2993,3.3015,3.3054,3.3054,3.3102,3.3121,3.3152,3.32,3.3266,3.331,3.3374,3.3496,3.3507,3.355,3.3564,3.3575,3.3587,3.3653,3.3672,3.3465,3.3465,3.3465,0,0,3.2814,3.2851,3.2894,3.2981,3.3017,3.3087,3.3032,3.3109,3.3161,3.3133,3.3231,3.3256,3.3309,3.3422,3.3473,3.3447,3.3647,3.3587,3.3596,3.3602,3.3664,3.3684,3.3701,3.3471,3.347,3.3469,0,0,3.2946,3.2981,3.3066,3.3103,3.3157,3.3171,3.3191,3.3241,3.3256,3.3355,3.3335,3.3398,3.3513,3.3551,3.3586,3.3732,3.3713,3.3753,3.3825,3.3889,3.3905,3.392,3.3971,3.3989,3.3764,3.3765,3.3765,0,3.3004,3.311,3.3112,3.3191,3.323,3.3207,3.3293,3.3329,3.3402,3.3429,3.3398,3.3541,3.3576,3.3697,3.3732,3.3761,3.3785,3.3746,3.3903,3.3917,3.3931,3.398,3.3999,3.3769,3.3768,3.3768,3.3768,0,3.3178,3.3252,3.3314,3.3384,3.343,3.3513,3.3528,3.3574,3.357,3.3587,3.3688,3.3728,3.3799,3.3828,3.3825,3.3948,3.393,3.3901,3.3845,3.3955,3.4001,3.4019,3.3775,3.3774,3.3772,3.3771,0,0,3.3346,3.3416,3.3439,3.347,3.3528,3.3584,3.3666,3.3734,3.3774,3.3825,3.3893,3.399,3.3964,3.4003,3.4004,3.406,3.4172,3.4024,3.4025,3.4049,3.431,3.4331,3.4352,3.416,3.4164,3.4167,3.4305,0,3.3482,3.3624,3.3628,3.3758,3.3825,3.3804,3.3875,3.3918,3.3936,3.3996,3.4016,3.4085,3.4045,3.4069,3.4123,3.4147,3.4224,3.4137,3.4223,3.4226,3.4209,3.4376,3.4399,3.4527,3.4323,3.4326,3.4328,0,3.3659,3.3714,3.3851,3.3898,3.3926,3.399,3.4053,3.411,3.4159,3.4168,3.4212,3.4205,3.4287,3.4229,3.4343,3.4284,3.432,3.4336,3.4342,3.4349,3.4283,3.4388,3.4569,3.4588,3.4357,3.4355,3.4353,0,3.3766,3.3875,3.397,3.3998,3.4056,3.4101,3.4127,3.4172,3.4213,3.4268,3.4295,3.4359,3.4395,3.4445,3.4455,3.4412,3.4569,3.4512,3.4579,3.4578,3.4612,3.461,3.48,3.4637,3.4636,3.4636,3.4636,0,3.3917,3.4001,3.4019,3.4078,3.4171,3.4176,3.4268,3.4291,3.4331,3.4394,3.4381,3.444,3.445,3.4511,3.452,3.4613,3.4629,3.4639,3.464,3.4639,3.4638,3.4662,3.4653,3.4641,3.464,3.4639,3.4638,0,3.4052,3.4068,3.417,3.4217,3.423,3.4297,3.4337,3.4393,3.4409,3.4489,3.4508,3.4534,3.4605,3.4621,3.4706,3.4712,3.4821,3.4814,3.4805,3.4804,3.4869,3.4863,3.5082,3.511,3.4929,3.493,3.4932,0,3.4147,3.4211,3.4264,3.4304,3.4333,3.4399,3.444,3.4447,3.4491,3.455,3.4599,3.4669,3.4725,3.4841,3.4868,3.4933,3.4926,3.4999,3.4936,3.4933,3.4926,3.4922,3.4928,3.501,3.5012,3.5014,3.5015,0,3.4312,3.4317,3.4377,3.444,3.4489,3.4539,3.4586,3.4621,3.4634,3.4684,3.4756,3.48,3.4887,3.4956,3.5021,3.5048,3.5034,3.5035,3.5053,3.5053,3.5045,3.5049,3.4837,3.503,3.5028,3.5027,3.5026,3.5026,3.443,3.4485,3.4531,3.4598,3.4634,3.4679,3.4733,3.4756,3.4817,3.4887,3.4888,3.4967,3.5014,3.5099,3.5131,3.5193,3.517,3.5198,3.5204,3.5211,3.5216,3.5036,3.5205,3.5204,3.5204,3.5204,3.5203,0,3.4594,3.4622,3.4684,3.475,3.4803,3.4784,3.4836,3.4881,3.4951,3.4995,3.505,3.5134,3.5201,3.5233,3.5299,3.5343,3.5338,3.536,3.5356,3.5363,3.5233,3.521,3.5363,3.5363,3.5363,3.5363,3.5362,3.5362,3.4686,3.4778,3.4788,3.4899,3.4926,3.5003,3.5034,3.5075,3.511,3.5203,3.5259,3.5279,3.5318,3.5387,3.5448,3.5456,3.548,3.5505,3.551,3.5388,3.5372,3.5356,3.5334,3.5511,3.5511,3.5634,3.5635,3.5636]},{"header":{"parameterUnit":"m.s-1","parameterCategory":1,"la1":30.2991,"la2":30.254,"lo1":-89.0895,"lo2":-89.0444,"dy":0.0017,"dx":0.0017,"nx":28,"ny":28,"refTime":"2025-07-10T21:00:00:Z","depth":0,"parameterNumber":3,"parameterNumberName":"V-component_of_WINDS"},"data":[0,0,0,0,0,0,0,0,0,0,0,0,0,0,0,0,0,0,0,0,0,0,0,0,0,0,0,0,0,0,0,0,0,0,0,0,0,0,0,0,0,0,0,0,0,0,0,0,0,0,0,0,0,0,0,0,0,0,0.1212,0.1212,0,0.12,0.12,0.12,0.1152,0.1151,0.115,0.1149,0.114,0.1141,0.1142,0,0,0,0,0,0,0,0,0,0,0,0,0,0.1196,0.1197,0.1212,0.1212,0.1212,0.12,0.12,0.12,0.1153,0.1151,0.115,0.1149,0.114,0.1141,0.1142,0,0,0,0,0,0,0,0,0,0,0,0,0,0.1196,0.1197,0.1212,0.1187,0.1184,0.12,0.12,0.12,0.1153,0.1151,0.115,0.1148,0.114,0.1141,0.1142,0.1182,0,0,0.1146,0.1146,0,0,0,0,0,0,0,0,0.1196,0.1196,0.1191,0.1188,0.1186,0.1176,0.1191,0.1194,0.1153,0.1165,0.1149,0.1147,0.1154,0.1154,0.1155,0.1182,0.1181,0.1146,0.1146,0.1147,0.1147,0,0,0,0,0,0,0,0.1196,0.1197,0.1207,0.1191,0.1188,0.1177,0.1175,0.1191,0.1169,0.1164,0.116,0.1159,0.1152,0.1154,0.1155,0.1181,0.1146,0.1147,0.1147,0.1148,0.1241,0.1243,0,0,0,0,0,0,0.1199,0.1197,0.1208,0.1207,0.1187,0.1178,0.1176,0.1181,0.1168,0.1165,0.1161,0.1157,0.1153,0.1153,0.1154,0.1201,0.1147,0.1148,0.1149,0.1239,0.1241,0.1243,0,0,0,0,0,0,0.1199,0.1201,0.1208,0.1201,0.1201,0.118,0.1186,0.1181,0.1183,0.1166,0.1162,0.1167,0.1152,0.1152,0.1175,0.12,0.1149,0.115,0.1237,0.124,0.1242,0.1295,0,0,0,0,0,0,0.1199,0.1201,0.1216,0.1202,0.1202,0.1229,0.1187,0.1182,0.1185,0.118,0.1171,0.1168,0.115,0.1174,0.1177,0.1201,0.1151,0.1235,0.1238,0.1241,0.1291,0.13,0.1306,0,0,0,0,0,0.1198,0.1232,0.1217,0.1218,0.1219,0.1231,0.1231,0.1209,0.1187,0.1202,0.1191,0.1168,0.1196,0.1177,0.1179,0.1204,0.1233,0.1237,0.1241,0.1288,0.1298,0.1306,0,0,0,0,0,0,0.1251,0.123,0.1213,0.1242,0.1238,0.1223,0.1241,0.1221,0.1224,0.122,0.1194,0.1192,0.1219,0.1213,0.1192,0.1243,0.1211,0.1216,0.1246,0.1255,0.1262,0.1264,0.1152,0,0,0,0,0,0.1265,0.1275,0.1257,0.1284,0.1283,0.1263,0.1267,0.125,0.1246,0.1245,0.1235,0.1233,0.1241,0.1247,0.1254,0.1289,0.1287,0.1308,0.1315,0.1322,0.1327,0.1346,0.1355,0.1256,0.1256,0.1256,0,0,0.1296,0.1286,0.1294,0.1295,0.129,0.1302,0.1262,0.1276,0.1285,0.1247,0.1269,0.1261,0.1257,0.1286,0.1299,0.1283,0.1353,0.1327,0.1332,0.1334,0.1351,0.136,0.1369,0.1259,0.1258,0.1258,0,0,0.1359,0.1352,0.1374,0.137,0.1363,0.1349,0.1354,0.1341,0.1335,0.1355,0.1327,0.1337,0.1352,0.135,0.1351,0.1412,0.1391,0.1414,0.1455,0.1474,0.1482,0.1488,0.1512,0.152,0.1419,0.1419,0.1419,0,0.1399,0.1415,0.1389,0.1405,0.1407,0.1371,0.1394,0.1391,0.1387,0.139,0.1371,0.1388,0.1383,0.1412,0.1426,0.1428,0.1434,0.1417,0.1482,0.1489,0.1495,0.1517,0.1525,0.1422,0.1422,0.1422,0.1421,0,0.1465,0.1477,0.1496,0.1492,0.1495,0.1515,0.1492,0.1499,0.1481,0.1469,0.1491,0.1483,0.1487,0.1492,0.1476,0.1519,0.1509,0.1487,0.1455,0.1508,0.1528,0.1536,0.1427,0.1425,0.1425,0.1424,0,0,0.1563,0.1543,0.1551,0.1548,0.1537,0.1546,0.1564,0.1567,0.1574,0.1571,0.1587,0.1599,0.1578,0.1579,0.1562,0.1578,0.1628,0.1554,0.1553,0.157,0.1677,0.1695,0.1705,0.1613,0.1615,0.1616,0.1678,0,0.1625,0.1654,0.163,0.1664,0.1675,0.164,0.1656,0.1651,0.164,0.1648,0.1635,0.1645,0.1616,0.1616,0.1631,0.1619,0.165,0.1614,0.1629,0.163,0.1634,0.1716,0.1735,0.1794,0.1685,0.1687,0.1687,0,0.1701,0.1701,0.1736,0.1721,0.1725,0.174,0.1741,0.1748,0.1742,0.1733,0.1733,0.1711,0.1729,0.1695,0.172,0.1696,0.17,0.1696,0.1697,0.17,0.1664,0.1722,0.1812,0.1822,0.1699,0.1698,0.1697,0,0.1771,0.1779,0.1801,0.18,0.1784,0.1795,0.1789,0.1781,0.1784,0.1785,0.1787,0.179,0.1793,0.1796,0.1776,0.1753,0.1803,0.1768,0.1797,0.1798,0.1812,0.1812,0.1906,0.1811,0.1811,0.1811,0.181,0,0.1843,0.1866,0.1832,0.1846,0.1871,0.1843,0.1869,0.1859,0.1852,0.1864,0.1834,0.1846,0.1817,0.1827,0.1811,0.1834,0.1835,0.1829,0.1825,0.1833,0.1834,0.1838,0.1834,0.1813,0.1812,0.1812,0.1812,0,0.1927,0.1905,0.1927,0.1909,0.1905,0.1924,0.1909,0.1922,0.1907,0.1923,0.1925,0.1903,0.1913,0.1892,0.1899,0.1888,0.1922,0.191,0.1924,0.1921,0.1952,0.1951,0.2054,0.2067,0.1962,0.1963,0.1964,0,0.1975,0.1992,0.1975,0.1981,0.1976,0.1985,0.1987,0.196,0.1965,0.1958,0.1972,0.1978,0.1982,0.1999,0.1984,0.1989,0.1979,0.2015,0.198,0.1987,0.1982,0.1982,0.1984,0.2023,0.2024,0.2025,0.2026,0,0.2065,0.2052,0.2057,0.2058,0.2062,0.2061,0.2059,0.2065,0.2036,0.2043,0.2051,0.2054,0.206,0.2068,0.2069,0.2064,0.2041,0.2037,0.2044,0.2054,0.2062,0.206,0.1946,0.2035,0.2034,0.2034,0.2033,0.2033,0.2133,0.2147,0.2137,0.2143,0.2138,0.2136,0.2147,0.2133,0.214,0.2142,0.2125,0.2138,0.2131,0.213,0.2127,0.2137,0.2121,0.2131,0.2134,0.2138,0.2144,0.2058,0.2137,0.2136,0.2136,0.2136,0.2136,0,0.2223,0.2214,0.222,0.2217,0.2222,0.2197,0.2193,0.22,0.221,0.2205,0.2209,0.2219,0.2225,0.2211,0.2215,0.2226,0.2216,0.2228,0.2229,0.2228,0.2157,0.2151,0.2237,0.2237,0.2237,0.2237,0.2237,0.2237,0.227,0.2291,0.2278,0.2297,0.2288,0.2299,0.2299,0.2298,0.2293,0.2305,0.231,0.23,0.2291,0.2294,0.23,0.2295,0.2299,0.2316,0.2308,0.2243,0.2233,0.2224,0.2218,0.2317,0.2317,0.2379,0.238,0.238]}]]